GW2067 Weather Reports


time (UTC)temp
C
wind
direction
speed
KPH
gust
KPH
rain 1hr
cm
rain 24hr
cm
rain mn
cm
humidity
%
barometer
mb
20260504173930 3 248 3.2 3.2 0.00 0.36 0.36 99 1006.3
20260504173426 2 59 1.6 3.2 0.00 0.36 0.36 99 1006.3
20260504172924 2 307 4.8 4.8 0.00 0.36 0.36 99 1006.5
20260504172420 2 335 1.6 1.6 0.00 0.36 0.36 99 1006.5
20260504171916 2 242 8.0 9.7 0.00 0.36 0.36 99 1006.7
20260504171414 2 267 1.6 3.2 0.00 0.36 0.36 99 1006.6
20260504170911 2 327 1.6 3.2 0.00 0.36 0.36 99 1006.6
20260504170407 2 254 3.2 3.2 0.00 0.36 0.36 99 1006.5
20260504160326 1 256 3.2 4.8 0.18 0.30 0.30 99 1006.9
20260504150750 2 314 3.2 3.2 0.13 0.08 0.08 96 1006.5
20260504150247 3 319 0.0 0.0 0.18 0.05 0.05 96 1006.5
20260504141217 4 227 4.8 4.8 0.00 0.00 0.00 82 1006.6
20260504140714 4 244 4.8 4.8 0.00 0.00 0.00 81 1006.8
20260504140209 4 323 3.2 3.2 0.00 0.00 0.00 80 1006.9
20260504130637 4 177 3.2 3.2 0.00 0.00 0.00 74 1006.6
20260504130134 4 311 0.0 1.6 0.00 0.00 0.00 74 1006.8
20260504110525 0 354 0.0 0.0 0.00 0.00 0.00 84 1007.0
20260504100442 -5 328 0.0 0.0 0.00 0.00 0.00 98 1007.3
20260504081835 -4 330 0.0 0.0 0.00 0.00 0.00 97 1007.0
20260504081332 -4 328 0.0 1.6 0.00 0.00 0.00 97 1007.1
20260504080827 -4 327 0.0 0.0 0.00 0.00 0.00 97 1007.0
20260504080325 -4 338 0.0 0.0 0.00 0.00 0.00 96 1007.0
20260504070252 -3 336 0.0 0.0 0.00 0.00 0.00 95 1007.5
20260504060213 -3 340 0.0 0.0 0.00 0.00 0.00 95 1007.4
20260504050640 -2 342 0.0 0.0 0.00 0.00 0.00 90 1007.7
20260504050137 -2 348 0.0 0.0 0.00 0.00 0.00 89 1007.6
20260504045635 -2 336 0.0 0.0 0.00 0.00 0.00 90 1007.5
20260504045134 -2 324 0.0 0.0 0.00 0.00 0.00 89 1007.5
20260504044632 -2 336 0.0 0.0 0.00 0.00 0.00 90 1007.5
20260504044129 -2 334 0.0 0.0 0.00 0.00 0.00 90 1007.7
20260504043626 -2 342 0.0 0.0 0.00 0.00 0.00 90 1007.6
20260504043123 -2 328 0.0 0.0 0.00 0.00 0.00 91 1007.8
20260504042621 -2 329 0.0 0.0 0.00 0.00 0.00 91 1007.6
20260504042117 -2 333 0.0 0.0 0.00 0.00 0.00 91 1007.8
20260504041613 -2 336 0.0 0.0 0.00 0.00 0.00 91 1007.9
20260504041109 -2 336 0.0 0.0 0.00 0.00 0.00 90 1008.1
20260504040607 -2 332 0.0 0.0 0.00 0.00 0.00 90 1008.0
20260504040103 -2 318 0.0 0.0 0.00 0.00 0.00 90 1007.9
20260504035600 -2 331 0.0 0.0 0.00 0.00 0.00 90 1007.7
20260504035056 -2 339 0.0 0.0 0.00 0.00 0.00 90 1007.6
20260504034554 -2 339 0.0 0.0 0.00 0.00 0.00 90 1007.6
20260504034051 -2 340 0.0 0.0 0.00 0.00 0.00 90 1007.9
20260504033549 -2 343 0.0 0.0 0.00 0.00 0.00 90 1007.9
20260504033046 -2 338 0.0 0.0 0.00 0.00 0.00 90 1007.7
20260504032543 -2 334 0.0 0.0 0.00 0.00 0.00 90 1007.9
20260504032040 -3 345 0.0 0.0 0.00 0.00 0.00 89 1007.6
20260504031537 -2 345 0.0 0.0 0.00 0.00 0.00 88 1007.7
20260504031033 -2 345 0.0 0.0 0.00 0.00 0.00 87 1007.7
20260504030531 -2 343 0.0 0.0 0.00 0.00 0.00 87 1007.7
20260504030026 -1 353 0.0 0.0 0.00 0.00 0.00 85 1007.9
20260504025524 -1 345 0.0 0.0 0.00 0.00 0.00 85 1007.7
20260504025020 -1 335 0.0 0.0 0.00 0.00 0.00 84 1007.8
20260504024517 -1 346 0.0 0.0 0.00 0.00 0.00 85 1007.8
20260504024014 -1 337 0.0 0.0 0.00 0.00 0.00 84 1007.8
20260504023511 -1 331 0.0 1.6 0.00 0.00 0.00 83 1007.7
20260504023007 0 333 0.0 0.0 0.00 0.00 0.00 82 1007.7
20260504022503 0 331 1.6 1.6 0.00 0.00 0.00 81 1007.9
20260504021959 0 334 1.6 1.6 0.00 0.00 0.00 79 1007.8
20260504021457 0 6 0.0 0.0 0.00 0.00 0.00 77 1007.7
20260504020954 0 1 0.0 0.0 0.00 0.00 0.00 78 1007.8
20260504020450 1 329 0.0 0.0 0.00 0.00 0.00 78 1007.8
20260504015947 1 316 0.0 0.0 0.00 0.00 0.00 72 1007.7
20260504015443 2 345 0.0 1.6 0.00 0.00 0.00 70 1007.7
20260504014939 2 11 3.2 3.2 0.00 0.00 0.00 69 1007.5
20260504014436 2 44 4.8 4.8 0.00 0.00 0.00 68 1007.6
20260504013932 2 12 0.0 1.6 0.00 0.00 0.00 67 1007.8
20260504013431 2 293 1.6 3.2 0.00 0.00 0.00 67 1007.8
20260504012927 2 313 3.2 4.8 0.00 0.00 0.00 67 1007.7
20260504012425 2 334 0.0 1.6 0.00 0.00 0.00 66 1007.7
20260504011922 2 348 1.6 3.2 0.00 0.00 0.00 66 1008.0
20260504011419 2 303 3.2 4.8 0.00 0.00 0.00 66 1007.8
20260504010915 2 336 4.8 8.0 0.00 0.00 0.00 66 1007.7
20260504010411 2 312 4.8 4.8 0.00 0.00 0.00 65 1007.9
20260504005907 2 267 4.8 4.8 0.00 0.00 0.00 65 1007.8
20260504005404 2 353 6.4 8.0 0.00 0.00 0.00 64 1007.7
20260504004903 3 273 6.4 8.0 0.00 0.00 0.00 64 1007.5
20260504004400 3 302 6.4 11.3 0.00 0.00 0.00 63 1007.6
20260504003856 3 340 4.8 4.8 0.00 0.00 0.00 63 1007.5
20260504003353 3 322 4.8 4.8 0.00 0.00 0.00 62 1007.3
20260504002849 3 263 6.4 8.0 0.00 0.00 0.00 63 1007.4
20260504002346 3 342 1.6 1.6 0.00 0.00 0.00 62 1007.4
20260504001844 3 285 3.2 3.2 0.00 0.00 0.00 62 1007.3
20260504001341 3 20 1.6 3.2 0.00 0.00 0.00 62 1007.4
20260504000837 3 238 6.4 8.0 0.00 0.00 0.00 61 1007.2
20260504000335 3 290 3.2 3.2 0.00 0.00 0.00 61 1007.3
20260503235832 3 245 8.0 17.7 0.00 0.00 0.00 60 1007.1
20260503235330 4 268 12.9 16.1 0.00 0.00 0.00 60 1007.2
20260503234827 4 302 6.4 9.7 0.00 0.00 0.00 60 1007.2
20260503234325 4 246 9.7 11.3 0.00 0.00 0.00 59 1007.1
20260503233822 4 335 4.8 4.8 0.00 0.00 0.00 59 1007.0
20260503233318 4 297 3.2 3.2 0.00 0.00 0.00 60 1006.9
20260503232814 4 287 8.0 9.7 0.00 0.00 0.00 59 1006.9
20260503232312 4 281 9.7 11.3 0.00 0.00 0.00 58 1006.9
20260503231810 5 223 11.3 12.9 0.00 0.00 0.00 58 1007.2
20260503231307 5 258 6.4 9.7 0.00 0.00 0.00 58 1007.0
20260503230802 5 276 3.2 4.8 0.00 0.00 0.00 57 1007.1
20260503230300 5 249 8.0 9.7 0.00 0.00 0.00 57 1007.1
20260503225757 5 307 8.0 9.7 0.00 0.00 0.00 58 1007.1
20260503225252 5 273 12.9 14.5 0.00 0.00 0.00 57 1007.0
20260503224749 5 304 4.8 8.0 0.00 0.00 0.00 57 1007.0
20260503224247 5 277 3.2 4.8 0.00 0.00 0.00 57 1007.0
20260503223744 5 279 8.0 8.0 0.00 0.00 0.00 56 1007.0
20260503223242 5 250 6.4 9.7 0.00 0.00 0.00 56 1007.1
20260503222738 5 302 3.2 4.8 0.00 0.00 0.00 56 1006.9
20260503222236 5 286 4.8 4.8 0.00 0.00 0.00 57 1007.0
20260503221734 6 328 8.0 9.7 0.00 0.00 0.00 56 1006.9
20260503221232 5 298 4.8 8.0 0.00 0.00 0.00 57 1006.7
20260503220728 5 286 4.8 4.8 0.00 0.00 0.00 56 1007.0
20260503220225 5 250 8.0 11.3 0.00 0.00 0.00 56 1006.9
20260503215722 5 329 12.9 16.1 0.00 0.00 0.00 55 1006.9
20260503215219 5 253 8.0 9.7 0.00 0.00 0.00 54 1006.8
20260503214717 6 325 1.6 3.2 0.00 0.00 0.00 56 1006.8
20260503214213 6 250 8.0 9.7 0.00 0.00 0.00 55 1007.0
20260503213711 6 304 8.0 9.7 0.00 0.00 0.00 55 1006.8
20260503213208 6 265 6.4 11.3 0.00 0.00 0.00 54 1007.0
20260503212705 6 303 3.2 3.2 0.00 0.00 0.00 54 1006.8
20260503212203 7 222 6.4 9.7 0.00 0.00 0.00 52 1006.8
20260503211700 6 286 8.0 11.3 0.00 0.00 0.00 53 1007.2
20260503211156 6 357 8.0 11.3 0.00 0.00 0.00 53 1007.2
20260503210652 6 347 6.4 11.3 0.00 0.00 0.00 56 1006.9
20260503210149 6 346 6.4 8.0 0.00 0.00 0.00 56 1007.3
20260503205644 6 336 4.8 8.0 0.00 0.00 0.00 55 1007.0
20260503205141 6 269 11.3 14.5 0.00 0.00 0.00 54 1007.1
20260503204637 6 304 6.4 9.7 0.00 0.00 0.00 54 1007.0
20260503204135 6 252 11.3 12.9 0.00 0.00 0.00 55 1007.1
20260503203632 6 273 6.4 9.7 0.00 0.00 0.00 55 1007.1
20260503203130 6 342 8.0 12.9 0.00 0.00 0.00 56 1007.2
20260503202627 6 348 8.0 11.3 0.00 0.00 0.00 55 1007.3
20260503202125 6 278 4.8 4.8 0.00 0.00 0.00 55 1007.2
20260503201623 6 246 8.0 11.3 0.00 0.00 0.00 55 1007.3
20260503201120 6 264 9.7 12.9 0.00 0.00 0.00 55 1007.4
20260503200616 6 318 8.0 9.7 0.00 0.00 0.00 56 1007.2
20260503200113 6 308 9.7 11.3 0.00 0.00 0.00 56 1007.4
20260503195610 6 333 3.2 3.2 0.00 0.00 0.00 56 1007.6
20260503195106 6 278 8.0 11.3 0.00 0.00 0.00 56 1007.2
20260503194603 6 256 11.3 14.5 0.00 0.00 0.00 56 1007.3
20260503194058 6 336 4.8 8.0 0.00 0.00 0.00 55 1007.7
20260503193555 7 275 4.8 4.8 0.00 0.00 0.00 55 1007.5
20260503193050 7 312 4.8 8.0 0.00 0.00 0.00 56 1007.2
20260503192547 7 274 4.8 8.0 0.00 0.00 0.00 54 1007.5
20260503192043 7 266 12.9 17.7 0.00 0.00 0.00 53 1007.3
20260503191540 7 318 8.0 9.7 0.00 0.00 0.00 51 1007.4
20260503191037 8 273 8.0 9.7 0.00 0.00 0.00 49 1007.3
20260503190533 8 201 11.3 12.9 0.00 0.00 0.00 47 1007.2
20260503190030 9 334 6.4 8.0 0.00 0.00 0.00 49 1007.3
20260503185526 8 223 9.7 11.3 0.00 0.00 0.00 48 1007.1
20260503185021 8 311 9.7 14.5 0.00 0.00 0.00 48 1006.7
20260503184517 8 271 1.6 4.8 0.00 0.00 0.00 50 1007.1
20260503184014 9 279 6.4 11.3 0.00 0.00 0.00 47 1007.1
20260503183511 9 317 4.8 8.0 0.00 0.00 0.00 48 1007.1
20260503183008 8 352 12.9 14.5 0.00 0.00 0.00 47 1007.0
20260503182507 7 261 11.3 16.1 0.00 0.00 0.00 50 1007.2
20260503182004 8 308 14.5 16.1 0.00 0.00 0.00 49 1007.2
20260503181500 7 246 8.0 11.3 0.00 0.00 0.00 49 1007.0
20260503180956 8 292 8.0 12.9 0.00 0.00 0.00 49 1007.2
20260503180455 8 188 9.7 12.9 0.00 0.00 0.00 48 1007.6
20260503175951 8 278 4.8 8.0 0.00 0.00 0.00 53 1007.5
20260503175449 7 318 6.4 9.7 0.00 0.00 0.00 52 1007.5
20260503174945 8 325 19.3 27.4 0.00 0.00 0.00 49 1007.5
20260503174443 9 329 9.7 12.9 0.00 0.00 0.00 49 1007.4